Miscellaneous Local Product
Issued by NWS North Platte, NE

Home | Current Version | Previous Version | Graphics & Text | Print | Product List | Glossary On
Versions: 1 2 3 4 5 6 7 8 9 10 11 12 13 14 15 16 17 18 19 20 21 22 23 24 25 26 27 28 29 30 31 32 33 34 35 36 37 38 39 40 41 42 43 44 45 46 47 48 49 50
000
AXUS43 KLBF 171310
MISLBF


WESTERN AND NORTH CENTRAL NEBRASKA HOURLY WEATHER ROUNDUP
NATIONAL WEATHER SERVICE NORTH PLATTE NE
700 AM CST TUE JAN 17 2017

NOTE: "FAIR" INDICATES FEW OR NO CLOUDS BELOW 12,000 FEET WITH NO
SIGNIFICANT WEATHER AND/OR OBSTRUCTIONS TO VISIBILITY.

NOTE: STATIONS NOT REPORTING VARIABLES SUCH AS SKY/WEATHER OR
PRESSURE ARE PROVIDED BY RAWS AND APRS NETWORKS AND ARE NOT UNDER
NATIONAL WEATHER SERVICE QUALITY CONTROL.

...OBSERVATIONS IN AND NEAR THE EASTERN PANHANDLE OF NEBRASKA...

CITY           SKY/WX    TMP DP  RH WIND       PRES   REMARKS
PINE RIDGE     CLOUDY     0  -3  87 CALM      30.01S
CHADRON        CLOUDY     9   3  77 SW6       30.01F WCI  -1
ALLIANCE       CLOUDY    10   6  84 SW5       30.02S WCI   2
SIDNEY         CLOUDY    12   6  77 W9        30.04F WCI   0
CRESCENT LAKE    N/A     17  11  78 CALM        N/A
$$

...OBSERVATIONS IN NORTHERN NEBRASKA AND FAR SOUTHERN SOUTH DAKOTA...

CITY           SKY/WX    TMP DP  RH WIND       PRES   REMARKS
WINNER         FAIR      18  13  80 W8        30.04S WCI   8
VALENTINE      CLEAR     13   9  84 SW8       30.03S WCI   2
THEDFORD       CLOUDY    20  17  86 W5        30.04S WCI  13
AINSWORTH      CLEAR     16  14  92 W6        30.03S WCI   8
O`NEILL        CLEAR     18  15  88 W7        30.03S WCI   9
ORD            CLOUDY    19  14  81 CALM      30.04R
BROKEN BOW     CLOUDY    23  18  81 CALM      30.03F
VALENTINE NWR    N/A     20  15  79 W6          N/A  WCI  12
BUTTE            N/A     13  10  89 CALM        N/A
HALSEY           N/A     20  15  81 W3          N/A
SARGENT          N/A     20  15  82 NW3         N/A
CHAMBERS         N/A     18  15  86 CALM        N/A
EWING            N/A     17  15  90 NW3         N/A
$$

...OBSERVATIONS IN SOUTHWEST NEBRASKA AND FAR NORTHEAST COLORADO...

CITY           SKY/WX    TMP DP  RH WIND       PRES   REMARKS
WRAY           FAIR      16  12  86 W5        30.08S WCI   9
HOLYOKE        FAIR      18  10  73 W10       30.06S WCI   6
IMPERIAL       CLOUDY    21  15  78 W3        30.08S
OGALLALA       CLOUDY    19  15  85 W9        30.07S WCI   8
NORTH PLATTE   CLOUDY    21  17  84 W5        30.06S WCI  15
MCCOOK         CLOUDY    24  21  88 W7        30.09S WCI  16
LEXINGTON      CLOUDY    25  20  82 NW8       30.07S WCI  16
STAPLETON        N/A     19  16  86 CALM        N/A
GOTHENBURG       N/A     22  18  84 W5          N/A  WCI  16
CALLAWAY         N/A     22  18  85 CALM        N/A
$$

...OBSERVATIONS IN CENTRAL LINCOLN COUNTY AREA...

CITY           SKY/WX    TMP DP  RH WIND       PRES   REMARKS
N.P. AIRPORT   CLOUDY    21  17  84 W5        30.06S WCI  15
N.P. DOWNTOWN    N/A     23  20  87 CALM        N/A
N.P. SOUTHEAST   N/A     22  19  86 CALM        N/A
N.P. HILLCREST   N/A     21  19  91 W3          N/A
$$

...SOME OBSERVATIONS FROM AROUND THE REGION...

CITY           SKY/WX    TMP DP  RH WIND       PRES   REMARKS
LARAMIE        CLOUDY    -7 -12  79 CALM      30.03S
CHEYENNE       CLOUDY    14   8  77 W8        30.00F WCI   3
DENVER         CLOUDY    19  16  88 S8        30.03S WCI   9
AKRON          CLOUDY    20  13  74 SW8       30.05S WCI  10
SCOTTSBLUFF    CLOUDY    14   9  80 N3        30.03F
RAPID CITY     CLOUDY    11   7  84 CALM      29.96F
BISMARCK       CLOUDY     5   1  83 CALM      29.95F
PIERRE         CLOUDY    11   7  84 SW8       30.02S WCI  -1
SIOUX FALLS    CLOUDY    11   9  92 W6        30.02R WCI   1
OMAHA          FLURRIES  28  24  85 NW12      30.04R WCI  18
GRAND ISLAND   CLOUDY    21  19  92 NW7       30.07  WCI  12
KANSAS CITY    CLOUDY    34  33  96 W8        30.04R WCI  27
WICHITA        MOCLDY    34  32  92 NW7       30.11R WCI  28
OKLAHOMA CITY  PTCLDY    35  33  92 NW6       30.14R WCI  30
DALLAS         MOCLDY    43  37  79 N8        30.14R
AMARILLO       CLOUDY    34  32  92 N12       30.14F WCI  25
DODGE CITY     CLOUDY    33  30  88 NW9       30.11S WCI  25
HAYS           PTCLDY    32  27  81 NW8       30.10R WCI  25
GOODLAND       CLEAR     23  19  85 W8        30.08S WCI  14
$$




USA.gov is the U.S. government's official web portal to all federal, state and local government web resources and services.